Theta_e
300 299 298 297 296 296 296 296 296 296 296 296 296 297 298 298 298 297 297 296 295 294 294 294 294 293 293 293 293 293 293 293 293 293 293 293 293 294 294 294 295 297 303 309 313 314 314 315 314 314 314 315 315 315 315 314 314 315 315 315 315 314 313 314 314 314 314 315 315 316 317 317 317 318 318 318 319 319 319 319 320 321 322 322 323
299 298 297 296 296 296 296 296 296 296 296 296 297 297 298 298 298 297 296 296 295 294 294 293 293 293 293 293 293 293 293 293 293 293 293 293 294 294 295 295 296 297 301 306 310 312 312 313 313 313 313 314 314 314 314 313 313 313 314 314 313 312 312 312 312 312 313 314 315 315 316 316 316 316 316 317 317 318 318 319 319 319 321 322 322
298 297 296 296 296 296 296 296 295 296 296 296 297 297 297 298 298 297 296 295 294 294 293 293 293 293 293 293 293 293 293 293 293 292 293 293 294 295 295 296 296 297 301 305 308 309 310 311 311 311 312 313 312 312 312 312 312 312 312 312 312 311 311 311 311 311 312 313 314 314 314 314 313 314 314 315 316 317 317 318 318 318 319 319 320
297 296 296 296 296 296 296 295 295 295 295 296 297 297 297 297 297 295 295 294 294 293 293 293 293 293 293 293 293 293 293 293 293 293 293 294 294 295 296 296 297 297 300 304 306 307 308 309 309 310 310 311 311 310 310 311 311 311 311 311 311 310 310 310 310 310 310 312 312 312 312 312 312 312 313 314 315 315 315 315 315 316 317 317 318
297 296 296 296 296 296 296 295 295 295 295 296 296 297 297 296 295 294 293 293 293 293 293 292 293 293 293 293 293 293 293 293 292 293 293 294 295 295 296 296 296 297 298 300 302 304 305 306 307 308 308 309 309 309 308 309 309 310 310 310 309 309 309 309 309 308 309 310 311 311 310 311 311 311 312 313 313 313 313 313 314 314 314 315 315
296 296 296 296 296 296 296 295 295 295 295 295 296 296 296 295 294 293 293 292 292 292 292 292 292 293 293 293 292 292 292 292 292 293 294 294 295 295 295 295 295 295 295 296 297 299 300 302 304 305 306 307 307 307 307 307 308 309 309 308 308 308 309 309 308 308 307 308 309 309 310 310 310 311 311 312 312 312 311 312 312 312 312 313 313
296 296 296 296 296 296 296 295 295 295 295 295 296 296 295 295 294 293 292 292 292 292 291 292 292 293 293 293 292 292 292 292 292 293 294 294 295 295 294 293 293 293 294 294 294 295 295 297 299 301 303 304 304 304 305 306 307 308 308 308 308 308 308 307 307 307 307 308 308 309 309 309 309 310 311 311 311 311 310 311 311 311 311 312 312
296 296 296 296 296 296 295 295 295 294 294 295 295 295 295 294 293 293 292 292 291 291 291 292 292 293 293 292 292 291 291 292 292 293 293 293 294 293 293 293 292 293 293 293 293 293 293 294 295 296 297 298 299 300 301 303 306 306 306 307 307 306 306 306 306 307 307 307 308 308 308 308 309 310 310 310 310 310 310 310 310 310 311 311 312
296 296 295 296 295 296 295 295 294 294 294 294 295 295 294 294 293 292 292 292 292 292 291 291 292 293 293 292 292 291 291 292 292 292 291 291 292 292 292 292 292 292 293 293 293 293 293 293 292 292 292 293 294 295 295 298 303 305 306 306 306 305 305 306 306 306 307 307 307 307 308 308 308 309 309 309 309 309 309 309 309 309 309 309 310
296 296 295 295 295 295 295 295 294 294 294 294 294 294 294 293 292 292 291 292 292 292 291 292 292 292 292 291 291 291 291 291 291 291 291 291 291 291 290 290 290 291 291 291 291 291 291 291 291 290 290 291 291 292 291 293 298 302 305 306 306 305 305 306 306 306 306 306 307 307 307 307 307 308 308 308 308 308 308 308 308 309 309 309 309
296 296 295 295 295 295 295 295 294 294 293 293 293 293 293 292 291 291 291 291 291 291 291 292 292 292 292 291 290 291 291 291 290 290 291 291 290 290 290 289 289 289 289 289 289 289 289 290 289 290 290 290 290 290 290 291 294 299 304 305 305 305 305 305 305 305 305 305 305 305 306 306 306 306 306 306 307 307 307 307 308 308 309 309 309
296 296 296 296 296 295 295 294 294 293 293 293 293 294 293 292 291 291 291 290 290 290 291 292 292 291 290 290 290 290 290 290 290 290 290 290 290 289 289 289 289 289 289 289 288 289 289 289 289 289 289 289 289 289 289 290 293 297 302 304 304 304 304 304 304 303 303 303 303 304 304 304 304 305 305 305 305 306 306 306 307 307 308 308 309
296 296 296 296 296 296 295 294 294 293 293 294 294 294 293 292 291 290 290 290 290 290 291 292 292 290 289 290 289 289 289 289 289 289 289 289 289 289 289 289 288 288 288 288 288 288 288 288 288 288 288 289 289 289 289 290 292 296 301 303 303 303 303 302 302 302 302 302 301 302 302 302 302 302 303 303 303 304 304 304 304 304 305 306 307
296 296 296 296 296 296 296 295 294 293 293 293 293 293 292 291 290 290 290 290 291 290 290 292 292 291 290 290 289 289 289 289 289 288 288 288 288 288 288 288 288 288 288 288 288 288 288 288 288 288 288 288 289 289 289 289 290 292 296 298 299 300 300 301 300 300 300 299 298 299 300 300 300 301 301 302 302 302 303 303 303 303 303 304 305
296 296 296 297 297 297 296 296 295 293 293 292 292 292 291 291 290 290 290 290 291 291 291 292 292 291 292 292 292 291 290 289 289 289 288 288 288 288 288 288 288 288 287 288 288 288 287 287 288 288 288 288 288 288 289 289 288 289 290 291 292 293 295 297 298 297 298 297 296 297 298 298 298 300 301 301 301 302 302 303 303 303 304 304 305
296 296 296 297 297 297 297 296 295 294 293 292 292 291 291 291 290 290 291 291 291 290 291 292 292 293 293 293 291 292 294 293 289 289 289 288 288 288 288 288 288 288 287 287 287 287 287 287 287 288 288 288 288 288 288 288 287 287 287 287 287 288 289 291 293 295 296 296 296 297 298 297 298 299 300 300 300 301 301 302 302 303 303 304 304
296 296 296 296 297 297 297 296 295 294 293 292 292 292 291 291 291 290 291 292 292 291 291 291 292 293 294 294 293 295 297 293 290 290 289 288 288 287 288 288 288 288 287 287 287 287 287 287 287 287 287 288 288 288 287 287 286 286 286 286 287 287 287 287 288 291 293 294 295 296 297 297 297 298 298 298 298 298 299 300 301 301 301 302 303
295 296 296 296 296 296 296 296 295 294 293 292 292 291 291 291 291 291 291 292 293 292 291 291 291 292 293 295 296 297 296 291 290 292 289 287 288 287 288 288 288 288 287 287 286 286 286 287 287 287 287 287 288 287 287 286 286 286 285 286 286 286 287 287 287 289 290 292 294 295 296 296 296 296 296 296 296 296 297 298 299 299 300 300 301
295 295 296 296 296 296 296 296 295 295 294 292 291 291 291 292 291 291 291 291 293 293 292 291 291 291 292 293 293 293 294 292 292 293 292 290 287 286 287 287 288 288 287 286 286 286 286 286 287 286 287 287 287 287 286 286 285 285 285 285 286 285 286 286 286 287 288 289 292 293 294 295 295 294 294 294 295 296 297 298 298 299 299 300 300
295 295 295 295 296 296 296 296 295 295 294 293 292 291 291 291 291 290 290 291 292 293 293 293 292 291 291 291 291 292 293 293 292 293 295 295 290 286 286 286 287 287 287 286 286 286 286 286 286 286 287 287 287 286 286 285 285 284 284 284 285 285 285 286 286 286 287 287 288 290 292 293 293 292 292 293 294 295 296 296 297 298 298 299 299
294 295 295 295 295 296 296 295 295 295 294 293 292 291 291 291 290 290 290 291 291 292 293 294 294 293 292 290 290 290 290 291 290 290 292 295 293 289 287 286 286 286 286 286 286 286 286 286 286 286 287 287 287 286 286 285 284 284 284 284 284 284 285 285 285 286 287 287 287 288 290 291 291 291 292 292 293 294 295 295 296 296 297 297 298
294 294 294 295 295 295 295 295 295 295 295 294 292 291 291 291 291 291 291 291 291 291 292 293 294 294 294 293 291 289 289 288 288 288 289 291 292 290 288 287 288 287 286 285 285 286 286 285 286 286 286 286 286 286 286 285 285 284 283 283 283 283 284 284 284 285 286 286 286 287 288 289 289 289 290 292 293 293 294 295 295 295 296 296 297
294 294 294 294 294 295 295 295 295 295 295 295 293 292 291 291 291 291 290 291 291 291 291 292 294 294 294 294 294 293 292 291 289 288 289 289 291 291 288 286 287 287 286 285 285 285 285 285 285 285 285 286 286 286 286 285 284 284 283 282 283 283 283 283 283 285 286 286 286 286 287 287 287 288 289 290 291 292 293 293 294 294 295 296 296
293 293 294 294 294 294 294 294 295 295 295 295 294 293 291 291 290 290 290 290 290 290 290 291 293 293 293 293 294 295 294 294 293 291 290 290 290 291 288 286 286 286 285 285 284 285 285 285 285 285 285 285 286 286 286 285 284 284 282 282 282 282 282 283 283 284 285 285 285 286 286 286 286 287 288 289 290 291 291 292 292 293 294 295 295
293 293 294 294 294 294 294 295 295 295 295 295 294 293 291 290 290 290 290 290 290 290 290 291 292 293 293 293 293 293 293 293 293 291 291 289 289 290 287 285 286 286 285 284 284 284 285 284 284 284 284 284 285 285 285 285 284 283 282 282 282 282 282 282 283 283 283 284 284 285 285 285 286 286 287 288 289 289 290 291 291 292 293 293 293
294 295 294 294 294 295 295 295 295 295 295 294 294 293 292 291 290 290 290 290 290 290 290 290 291 292 292 293 293 293 292 292 291 290 290 289 288 288 287 285 285 284 284 284 283 284 285 284 284 284 284 283 284 285 285 285 284 282 281 281 282 282 282 282 283 282 283 283 283 284 284 284 285 285 286 287 288 288 289 289 290 291 291 291 291
295 295 295 294 294 295 294 294 294 294 294 294 293 293 292 291 290 290 290 290 289 289 289 289 290 291 291 292 292 292 291 291 290 290 290 290 289 288 288 288 287 285 284 284 283 284 284 283 283 283 283 283 283 284 285 284 283 282 281 281 281 281 282 282 283 282 282 283 282 283 284 284 284 285 285 286 287 287 288 288 289 289 289 289 289
295 294 294 294 294 294 293 294 294 293 293 293 292 292 291 290 290 289 289 289 289 289 289 289 290 290 291 291 291 291 291 290 289 289 289 289 289 289 288 289 290 289 287 285 284 284 284 283 283 283 283 283 283 283 284 283 282 281 280 281 281 281 282 282 282 282 282 282 282 282 283 283 284 285 285 285 286 286 287 287 288 288 288 288 288
295 294 294 293 293 293 293 293 293 292 292 292 291 291 291 290 290 289 289 289 289 289 289 289 289 289 290 290 290 290 290 289 289 289 288 288 288 288 288 287 288 289 289 288 286 285 284 283 283 283 282 282 282 283 283 283 282 281 280 281 281 281 282 281 281 282 282 282 281 282 283 283 284 284 285 285 285 286 286 286 286 287 287 287 287
295 295 294 293 293 293 292 292 292 291 291 291 291 290 290 290 289 289 289 289 289 289 288 289 289 289 289 289 289 289 289 289 289 288 288 288 288 287 287 287 286 287 288 289 287 285 284 283 282 283 283 282 282 282 283 282 281 280 280 280 281 281 281 281 281 282 282 281 281 281 282 283 284 284 284 285 285 285 285 285 285 286 286 286 287
295 294 294 294 293 293 292 292 291 291 291 291 290 290 290 289 289 288 288 288 288 288 288 288 288 288 288 288 288 288 288 288 288 288 287 287 287 287 287 286 286 286 286 287 287 285 283 283 282 282 282 282 282 282 282 282 280 280 280 280 280 281 281 281 281 282 282 281 280 281 282 283 283 283 284 283 283 284 284 285 285 285 285 286 286
294 294 294 294 294 293 293 292 291 291 291 290 290 289 289 289 289 288 288 287 288 288 288 288 287 288 288 287 287 287 287 287 287 287 287 287 287 287 287 286 286 285 284 285 286 285 282 282 283 282 282 282 282 281 281 280 279 279 280 280 280 280 280 281 281 281 281 281 280 280 281 282 282 282 282 282 282 283 283 284 284 284 284 285 286
294 294 294 293 293 293 293 292 292 291 291 290 290 289 289 288 288 287 287 287 287 287 287 287 287 287 287 287 287 287 287 287 287 286 286 286 286 286 286 286 285 285 284 284 284 284 281 281 282 281 281 281 280 280 280 279 279 279 279 279 279 280 280 282 282 282 282 282 281 280 281 281 281 281 281 281 282 282 282 283 283 284 284 285 285
294 293 293 293 293 293 293 292 292 291 290 290 290 289 288 288 287 287 286 286 286 286 286 287 287 287 286 286 286 286 286 286 286 286 286 286 286 286 285 285 285 285 284 284 284 283 282 280 280 280 280 279 279 279 279 279 279 279 279 280 280 280 281 282 283 283 282 282 281 280 280 280 280 280 280 281 281 281 282 282 283 283 284 284 284
293 293 293 293 292 292 292 292 291 291 290 290 289 289 288 288 287 287 286 286 286 286 286 286 286 286 286 285 285 285 285 285 285 285 285 285 285 285 285 285 285 284 284 284 283 283 282 280 279 279 279 279 279 279 279 279 280 280 281 281 281 280 281 282 282 282 281 280 279 279 280 280 280 280 280 280 281 281 281 281 282 282 282 283 283
292 292 292 292 292 292 292 291 291 290 290 290 289 288 288 287 287 287 286 286 286 286 286 286 286 286 286 285 285 285 285 284 284 284 285 285 284 284 284 284 284 284 283 283 283 282 282 280 279 279 279 279 280 280 279 279 280 280 280 281 281 280 280 280 281 281 280 280 279 280 280 280 279 279 279 280 280 280 280 280 281 281 281 281 281
292 292 291 291 291 291 291 291 291 290 290 290 289 289 288 287 287 286 286 286 286 286 286 286 286 286 286 286 285 285 284 284 284 283 284 284 284 284 284 283 283 283 282 282 282 281 281 279 278 278 278 279 279 279 279 279 279 279 279 280 280 280 280 280 281 280 280 280 279 279 279 279 278 278 278 279 279 280 280 280 280 280 280 280 280
291 291 291 291 290 291 291 291 290 290 290 289 289 289 288 288 287 286 286 286 286 286 286 286 286 286 286 286 285 285 284 284 284 283 283 283 283 283 283 283 283 282 281 281 281 280 280 279 278 277 277 278 278 279 279 278 278 279 279 279 280 279 279 280 281 281 280 279 279 279 278 278 277 277 277 278 279 280 280 280 280 279 279 280 280
291 291 290 290 290 290 290 290 290 290 289 289 289 288 288 287 287 286 286 285 285 285 285 285 285 285 285 285 284 284 284 284 284 284 283 283 283 283 283 282 282 281 281 280 280 279 278 278 277 276 276 277 277 277 278 278 278 278 278 278 279 278 278 279 280 279 278 278 278 278 278 277 277 276 277 278 280 280 280 280 280 279 280 280 280
290 290 290 290 290 290 289 289 289 289 289 289 288 288 287 287 286 286 286 285 285 284 284 284 284 284 284 284 284 284 285 285 284 284 284 284 283 282 281 281 281 280 280 279 278 277 277 276 276 276 276 276 276 277 277 277 277 277 277 277 277 278 277 277 278 278 277 277 277 277 277 276 275 275 276 278 279 279 279 279 279 279 279 279 279
290 290 290 289 289 289 289 288 288 288 288 288 288 288 287 287 286 286 285 285 284 284 284 284 284 284 284 284 284 284 284 284 284 284 285 285 284 283 282 281 280 280 279 278 277 276 275 275 276 276 276 276 277 277 277 277 277 278 277 277 277 277 278 277 277 277 277 277 277 277 276 275 274 275 276 277 277 277 277 277 277 278 278 278 278
289 289 289 289 289 288 288 288 288 288 288 288 288 288 287 287 286 286 285 285 284 284 284 283 283 283 283 283 283 283 283 283 283 283 284 284 284 284 284 283 281 280 279 277 276 275 275 275 276 276 277 277 277 277 278 278 278 277 277 277 277 277 277 277 278 278 277 277 276 275 275 274 274 274 275 276 276 275 275 275 276 277 277 277 278
289 289 289 288 288 288 288 288 288 287 287 288 287 287 287 287 287 286 285 285 284 284 283 283 282 282 282 282 282 282 282 282 282 282 283 283 283 283 283 283 283 282 281 278 276 275 275 276 276 276 277 277 278 278 278 278 277 277 277 277 277 277 277 278 278 278 277 276 275 274 274 274 274 274 274 275 275 275 275 275 275 276 276 277 278
289 288 288 288 288 288 288 287 287 287 287 287 287 287 287 286 286 286 285 285 284 283 283 283 282 282 282 281 281 281 281 281 281 281 281 281 281 282 282 282 282 282 282 282 280 277 276 276 276 276 277 277 278 278 278 277 277 277 277 277 277 277 277 277 277 277 276 275 274 273 273 274 273 273 274 275 275 274 274 275 275 275 276 277 277
288 288 288 288 288 287 287 287 287 287 287 287 287 287 286 286 286 286 285 285 284 284 283 283 282 282 281 281 281 281 281 281 281 281 280 280 280 281 281 280 280 280 280 280 280 280 279 277 277 277 277 278 278 278 277 277 277 277 277 277 277 277 277 277 276 276 275 274 273 273 273 273 273 273 273 275 275 274 274 274 274 275 275 276 276
287 287 287 287 287 287 287 287 287 287 287 287 287 286 286 286 286 286 285 285 284 284 283 283 282 282 281 281 281 280 280 280 280 280 280 280 279 279 279 279 279 279 278 278 278 278 278 278 277 277 277 278 278 277 277 276 277 277 277 277 277 277 276 275 275 274 274 273 272 272 273 273 273 273 273 274 274 273 273 274 274 275 275 275 275
287 287 287 287 287 287 287 286 286 286 286 287 286 286 286 286 286 286 285 285 284 284 283 282 282 282 281 281 281 280 280 280 280 280 280 280 279 279 278 278 277 277 277 277 277 277 277 278 278 278 278 278 277 277 276 277 277 277 277 277 276 275 275 274 273 273 273 273 272 271 272 273 273 273 273 274 273 273 273 274 275 275 275 275 275
287 287 286 286 286 286 286 286 286 286 286 286 286 286 286 285 286 286 286 285 284 283 283 282 282 281 281 281 281 280 280 280 280 280 280 280 280 279 278 277 277 276 277 277 277 277 278 278 278 278 277 277 276 276 277 277 277 277 277 276 275 274 273 272 272 272 272 272 272 271 271 272 272 272 273 273 272 272 273 274 275 275 276 276 275
286 286 286 286 286 286 286 286 285 285 285 286 285 285 285 286 286 286 286 285 284 283 282 282 281 281 281 280 280 280 280 280 280 279 280 280 279 278 278 277 276 277 277 278 278 279 278 278 278 278 277 276 277 277 278 278 277 277 276 275 274 273 272 271 271 271 271 272 272 271 271 272 272 272 272 271 272 272 273 274 274 274 275 275 275
286 286 286 285 285 285 285 285 285 285 285 285 285 285 285 286 286 287 286 285 284 282 282 281 281 280 280 280 280 280 280 279 279 280 280 279 279 278 278 277 277 277 277 278 278 279 278 278 277 277 277 277 278 278 278 277 276 275 274 273 273 271 270 270 270 270 270 271 272 271 271 271 271 271 271 271 271 272 273 273 273 273 273 274 274
285 285 285 285 285 285 285 285 285 284 284 284 284 284 285 286 287 287 286 285 283 282 281 280 279 279 279 279 279 279 279 279 279 280 280 279 278 278 278 277 277 277 277 277 277 277 277 277 277 277 277 277 277 277 276 276 275 274 273 272 271 271 270 270 269 269 270 271 272 271 270 270 270 270 270 270 271 271 272 272 272 271 272 272 272
Wind_Speed
30 30 29 29 28 26 24 23 22 21 20 19 17 16 14 13 12 11 10 9 9 8 7 7 6 5 4 3 2 2 2 3 3 3 3 2 1 0 1 2 5 7 9 10 11 11 10 10 10 9 10 11 11 11 10 11 12 12 11 11 12 13 13 14 14 14 13 13 13 13 13 13 14 15 14 14 13 13 12 10 9 9 10 11 11
31 31 30 30 29 27 25 24 23 22 21 20 18 16 15 14 13 12 11 10 10 9 8 7 6 5 4 3 2 2 2 3 3 3 2 1 1 2 2 3 5 7 9 10 11 12 12 11 10 10 10 11 11 11 10 11 12 11 11 11 12 12 12 13 14 14 14 13 14 14 13 14 14 15 15 15 14 15 15 14 12 10 10 10 10
32 32 31 30 29 28 26 25 25 23 22 20 19 18 16 15 14 13 12 11 10 10 9 7 6 5 4 3 2 2 2 3 2 2 1 1 2 4 5 5 6 8 10 11 12 13 13 13 12 11 12 11 11 10 9 10 11 10 10 10 11 12 12 12 13 13 13 14 14 13 13 14 14 14 15 15 14 15 15 15 14 12 12 11 10
33 33 32 31 30 29 27 26 26 24 23 22 21 20 18 17 16 15 14 13 12 11 10 8 6 5 4 3 2 2 2 2 2 1 1 2 4 5 7 7 8 9 11 12 13 13 14 15 15 14 13 13 12 11 10 11 11 9 9 9 10 11 12 12 13 12 12 13 13 13 13 13 13 13 14 14 14 14 14 14 14 12 12 12 11
35 34 33 32 31 30 28 28 27 25 25 24 22 21 20 19 18 17 16 14 13 12 11 9 8 6 4 3 2 2 2 1 1 1 3 4 6 7 8 9 9 9 10 11 11 12 12 13 14 15 15 14 12 12 12 12 11 9 9 9 9 10 11 11 12 11 11 12 12 13 12 12 13 13 13 13 13 13 12 11 11 11 10 10 10
36 36 34 33 32 31 30 29 28 27 26 25 24 23 22 21 19 18 17 15 14 13 11 10 8 6 4 3 2 1 1 1 2 3 5 6 8 8 9 9 9 9 9 10 10 10 10 11 12 13 14 14 12 12 12 12 11 10 9 9 8 9 10 11 11 11 11 11 11 12 12 12 12 12 12 12 12 12 10 10 10 10 9 9 9
38 37 36 35 34 32 31 31 30 29 28 27 26 25 23 21 20 19 18 17 15 14 12 11 8 6 4 3 2 2 2 3 4 6 7 8 9 9 10 9 9 9 9 9 9 10 10 10 11 12 12 11 10 10 11 11 11 11 10 9 9 9 10 11 11 11 11 11 12 12 12 12 12 12 12 12 12 12 11 10 10 10 10 10 10
40 39 38 37 36 34 33 32 31 31 30 29 27 26 24 22 21 20 19 18 17 15 13 11 9 7 5 4 3 4 5 6 7 8 9 10 10 10 10 10 10 10 10 10 9 9 9 9 9 9 10 9 8 8 9 10 11 10 10 10 10 10 11 11 11 11 12 12 12 12 12 12 12 12 12 12 12 12 11 11 11 11 11 11 11
41 41 39 38 37 35 34 33 33 33 32 30 29 27 25 24 23 21 20 19 18 17 14 12 9 7 6 5 5 6 7 9 9 9 11 11 11 11 11 10 10 9 9 9 8 8 7 7 7 7 8 8 7 7 7 8 9 10 10 10 11 10 11 11 11 12 12 13 13 13 13 13 12 12 12 12 13 13 12 12 12 12 12 12 12
43 42 41 39 37 36 35 35 35 34 33 32 30 28 26 25 24 23 21 20 19 17 15 13 10 8 7 6 8 9 10 10 11 12 13 12 12 12 11 10 9 8 8 7 7 6 6 6 6 6 6 7 7 7 7 7 8 10 11 11 11 11 11 11 12 12 13 13 14 13 13 13 13 13 13 13 13 13 14 13 13 14 13 13 13
45 44 42 40 38 37 37 36 37 36 34 33 31 30 29 27 26 25 23 20 18 17 15 13 11 8 8 9 10 11 12 12 13 14 14 13 13 12 11 10 9 7 7 6 6 5 6 5 6 6 6 7 7 6 7 7 8 10 11 11 11 11 11 11 12 13 13 13 13 13 13 13 13 13 13 13 13 13 14 14 14 14 14 14 14
46 45 44 42 41 40 39 38 37 37 36 36 34 33 32 30 28 27 25 22 20 18 16 15 14 12 11 13 13 13 14 14 14 14 14 13 13 12 11 9 8 7 6 5 5 5 5 6 6 6 6 6 6 6 7 9 10 12 13 12 11 10 11 11 12 13 13 13 13 12 12 13 13 13 13 13 13 13 14 14 14 14 14 14 15
47 46 45 44 42 41 40 39 38 38 38 37 36 34 33 31 30 28 26 24 22 20 18 17 15 14 12 13 14 15 15 15 15 14 13 12 12 12 11 9 8 7 5 5 5 5 5 5 5 6 6 7 7 7 8 9 12 14 14 13 12 11 11 11 12 12 12 12 12 12 13 13 13 13 13 14 14 14 14 14 14 14 14 14 15
48 47 46 45 44 42 40 40 39 39 39 37 36 35 34 33 31 29 26 24 23 22 22 19 13 13 13 10 9 10 12 13 13 12 11 10 12 12 11 9 8 7 6 5 5 4 4 4 5 6 6 7 7 8 9 10 11 12 12 12 12 12 11 11 12 11 11 11 11 11 12 12 12 13 14 14 14 14 15 15 15 15 15 15 15
48 48 47 46 45 43 41 40 40 41 40 39 38 37 36 35 33 31 28 25 22 23 25 20 13 16 14 7 3 4 5 7 9 10 9 9 10 10 8 6 6 6 5 4 3 3 3 4 6 6 6 7 8 9 10 12 12 11 10 10 10 10 10 10 11 10 11 11 11 11 12 12 12 13 13 13 13 14 14 14 15 15 16 16 16
49 48 47 47 45 44 43 42 42 42 42 42 41 40 39 37 35 33 31 27 23 23 27 22 18 17 9 3 2 2 2 6 9 9 9 11 9 8 7 5 4 4 3 1 1 2 4 6 7 7 7 8 9 11 12 12 11 9 9 8 8 8 8 8 9 10 10 11 11 11 12 12 12 12 13 13 13 13 13 14 14 14 15 15 16
49 49 48 48 47 46 45 44 44 43 43 44 43 42 41 39 38 36 34 31 27 25 26 25 23 19 10 4 3 1 1 4 7 7 10 13 11 10 9 6 4 1 1 0 1 3 6 7 8 8 8 9 11 12 12 11 9 9 10 10 10 9 8 8 8 9 10 11 12 12 12 12 12 12 13 13 13 13 13 14 14 15 15 16 16
49 49 48 48 47 46 46 45 45 45 45 44 44 43 42 41 40 39 37 33 29 26 26 26 25 22 16 10 6 3 4 7 5 2 7 12 12 11 11 9 7 2 1 2 1 4 7 8 10 9 8 10 12 13 11 9 10 11 12 12 12 11 10 9 8 9 10 11 12 12 12 12 12 13 13 13 14 14 14 15 15 16 16 16 17
49 48 48 48 47 46 46 45 45 45 45 45 45 44 43 42 41 41 38 34 30 27 28 27 25 21 19 16 11 7 9 10 6 2 2 7 11 12 12 11 9 4 2 3 3 6 9 10 10 9 9 11 13 13 10 9 10 12 13 13 13 13 13 12 11 10 10 11 11 12 13 13 13 13 13 14 15 15 15 16 16 16 16 17 17
47 47 48 47 47 47 46 45 45 45 45 45 46 45 44 43 42 42 40 37 32 29 29 29 26 22 20 17 12 11 14 13 10 7 3 1 5 9 11 11 9 6 4 3 5 9 12 11 10 10 10 11 13 12 8 7 9 12 13 13 13 13 13 12 12 12 10 10 10 11 13 13 13 13 14 15 15 15 16 16 15 16 16 16 16
46 47 47 47 47 47 46 46 45 45 45 45 45 45 44 44 44 43 42 40 36 30 28 30 29 26 22 19 14 13 13 11 11 9 4 2 3 3 6 8 7 7 6 4 6 11 13 11 10 10 10 11 13 11 6 4 5 10 13 14 13 13 12 11 11 10 10 10 10 11 12 13 13 14 15 15 15 16 16 16 16 16 16 17 17
45 46 47 47 47 47 46 46 46 45 44 44 45 45 45 45 45 44 43 42 39 33 29 29 30 28 25 23 20 16 11 7 10 11 5 2 1 1 6 8 5 7 8 5 7 12 13 12 11 11 10 11 14 12 8 4 1 8 13 14 13 13 12 10 9 9 9 10 10 11 12 12 13 14 15 15 15 15 16 16 16 16 16 17 17
45 45 46 47 47 47 46 46 45 45 45 45 46 46 46 46 45 44 43 43 40 35 31 29 29 29 26 25 24 21 16 12 15 18 11 5 3 2 5 9 6 6 8 7 8 12 14 14 14 12 9 12 14 12 10 6 3 7 12 14 13 13 11 10 8 8 9 10 11 12 12 13 13 14 14 15 15 15 15 16 16 16 16 16 17
41 44 46 46 47 46 46 46 46 46 46 46 46 46 46 46 45 44 44 43 41 37 34 31 30 30 28 26 24 23 21 17 17 20 18 14 10 3 4 8 5 5 9 8 6 12 16 15 15 13 9 12 14 13 11 8 6 8 13 14 13 13 11 10 8 8 10 11 12 12 13 13 14 14 15 15 15 15 15 16 16 16 16 16 16
41 43 45 46 46 47 48 49 49 49 48 47 46 46 46 46 46 45 45 44 42 40 37 34 32 31 30 28 26 23 22 19 15 16 19 18 13 6 5 6 3 2 7 8 6 11 17 16 16 14 10 11 14 14 12 9 8 10 14 15 13 13 11 10 9 9 10 11 11 12 13 14 14 15 15 15 15 15 15 16 16 16 16 16 17
44 46 47 47 47 49 50 50 50 49 49 48 48 47 47 46 46 46 45 44 43 41 39 36 33 32 31 29 28 26 24 22 18 17 19 20 17 12 8 4 1 2 3 6 7 9 13 16 17 15 12 11 13 15 13 10 9 12 15 14 13 12 11 10 10 10 10 11 11 12 13 14 14 15 15 16 16 16 16 16 16 16 16 17 17
44 45 45 46 48 49 48 48 48 48 48 48 48 48 47 47 46 46 46 45 44 42 40 38 35 34 33 31 29 28 26 24 23 20 20 20 19 18 14 6 2 2 1 3 7 10 13 16 16 17 16 13 14 15 15 12 10 13 15 14 12 12 11 10 11 11 11 12 12 12 13 14 14 15 15 16 16 17 17 17 17 17 17 17 18
40 40 41 43 46 47 46 47 47 47 47 47 47 48 48 47 47 47 47 46 45 44 42 40 38 36 35 33 31 30 28 27 25 22 21 21 19 18 18 13 6 3 2 3 5 9 15 18 16 17 19 17 16 17 16 13 11 14 15 13 12 12 12 12 12 12 12 12 12 12 13 14 14 15 15 15 16 17 17 17 17 16 17 17 18
38 38 38 40 42 44 45 46 46 45 46 46 46 46 47 47 48 49 49 47 46 45 44 42 40 38 36 35 33 31 30 28 27 25 23 23 22 20 19 19 13 6 3 3 4 7 15 21 18 16 20 19 16 17 16 13 13 15 15 12 12 13 13 13 13 13 14 14 14 13 13 14 13 14 14 15 15 17 17 17 17 16 17 17 17
37 37 37 38 39 42 43 43 44 44 45 45 46 46 46 47 48 48 49 48 47 46 45 44 42 40 38 36 34 33 32 30 29 28 27 26 25 24 21 21 19 14 7 3 5 8 14 21 19 15 18 19 17 17 17 15 14 15 13 11 11 12 12 13 13 14 14 14 14 12 12 12 12 12 13 14 15 16 16 17 17 17 17 17 17
36 37 37 38 39 41 42 43 44 44 45 46 46 46 47 47 48 47 47 47 47 46 45 44 43 41 40 38 37 35 34 33 31 31 30 29 27 26 24 22 22 21 15 6 3 7 15 21 21 17 16 18 17 17 17 16 15 14 11 9 9 10 10 11 12 13 13 13 13 11 10 10 11 12 13 14 15 16 17 17 17 17 17 17 18
37 37 38 39 40 41 42 43 44 45 46 46 46 46 47 47 48 47 47 47 46 47 46 44 43 42 41 40 39 38 36 35 35 34 34 33 31 29 27 26 25 23 21 14 4 6 14 21 20 18 16 17 18 17 17 16 14 11 8 7 7 7 9 10 11 11 12 12 13 11 10 10 12 13 15 16 16 17 18 19 19 19 19 19 20
38 38 39 39 40 41 42 44 45 46 46 47 47 47 47 48 47 46 46 46 46 47 46 45 44 44 43 42 41 40 39 39 38 38 37 35 33 32 30 29 28 26 24 20 10 7 11 17 17 16 16 17 17 16 15 14 11 8 5 5 5 6 9 10 10 11 11 12 13 13 12 12 13 15 16 17 17 19 20 20 20 20 20 20 21
38 38 39 40 40 41 42 44 46 47 47 48 48 48 48 49 47 46 46 47 48 47 47 47 47 46 44 44 43 42 41 41 40 40 40 38 36 35 33 32 31 29 26 24 17 10 10 14 16 15 14 15 15 13 12 12 9 6 4 4 5 7 9 10 10 10 11 12 13 12 12 12 14 15 17 18 18 19 20 21 20 20 21 22 23
37 38 38 39 40 41 43 44 45 46 47 48 48 49 50 50 50 48 48 50 50 49 49 50 49 48 46 46 45 45 43 42 42 41 40 39 38 37 36 34 32 31 29 26 23 17 13 14 15 14 12 13 13 10 10 10 8 6 5 5 6 8 9 9 9 10 11 12 11 10 10 12 15 17 18 17 18 20 21 22 22 22 23 23 24
36 37 38 39 40 41 43 44 44 46 47 48 49 50 51 51 51 51 51 52 52 52 53 53 52 51 50 49 48 47 46 45 44 43 41 40 40 38 36 35 33 32 30 28 26 22 16 14 13 13 12 12 12 10 10 8 6 5 5 6 8 9 10 10 10 11 12 11 10 10 11 14 17 18 18 17 19 22 23 23 23 24 25 25 27
36 37 38 39 40 41 43 44 45 46 47 48 49 51 51 51 50 50 51 52 54 54 54 54 54 55 54 53 52 50 49 48 46 45 44 42 40 39 37 35 34 32 30 29 27 24 19 15 13 12 12 12 12 11 9 7 6 6 6 7 9 11 11 11 11 12 13 11 10 11 12 14 17 17 17 18 21 23 23 23 23 24 25 26 28
36 37 38 38 40 42 44 44 45 46 47 47 49 51 52 51 50 49 49 51 53 54 54 54 55 56 56 55 53 53 52 52 50 47 46 43 41 40 38 37 35 33 31 30 28 24 21 18 14 12 12 12 12 10 7 5 6 7 9 11 12 12 13 13 13 13 13 11 10 10 12 14 17 18 19 20 22 23 23 23 23 23 24 26 28
35 36 37 38 40 42 44 44 44 45 45 46 48 49 50 51 51 50 49 49 50 51 52 53 53 54 55 54 53 54 55 54 53 50 48 46 43 42 40 39 36 35 33 30 27 24 21 18 15 13 11 10 10 9 6 3 4 6 8 11 12 13 12 11 12 13 11 9 8 7 10 16 20 22 21 20 21 22 22 22 22 23 24 26 27
34 35 37 39 40 41 42 43 43 43 43 45 48 48 48 49 49 49 49 49 49 48 48 49 51 52 54 53 52 54 55 54 53 52 50 48 46 44 41 40 38 36 34 31 28 25 21 18 14 11 8 7 7 7 5 3 4 6 6 7 10 11 9 9 13 13 10 9 8 8 12 20 24 22 20 20 21 21 21 21 22 24 25 26 26
33 35 36 37 39 40 40 41 41 41 43 45 47 48 48 48 47 48 48 48 48 47 45 46 48 50 52 52 52 53 53 53 51 50 49 49 48 47 44 43 41 38 36 32 29 27 22 16 12 10 8 8 8 8 8 8 9 8 7 9 11 11 9 10 14 13 10 9 9 11 18 24 23 19 18 19 20 20 20 22 23 25 25 24 25
32 34 35 36 38 39 38 39 40 41 43 45 46 47 48 49 48 47 46 46 46 45 44 45 46 48 49 50 50 50 50 50 49 48 48 47 47 46 45 45 43 41 38 35 32 30 24 18 14 13 11 10 11 12 11 12 11 10 9 10 11 10 10 11 13 12 11 10 11 16 22 23 19 16 15 18 20 20 20 21 23 24 24 24 24
30 32 34 35 36 37 38 38 40 41 43 44 44 45 48 50 49 47 45 45 44 44 43 43 44 46 47 47 47 46 47 48 47 46 46 46 45 44 42 42 42 41 39 37 36 35 30 23 18 16 14 12 13 13 13 12 12 11 11 11 11 11 10 9 10 9 10 12 15 19 21 21 17 13 15 20 21 20 20 21 23 24 23 23 24
29 30 32 34 35 36 36 37 39 41 42 43 44 45 47 49 50 48 45 44 43 43 43 42 42 43 44 44 43 43 45 46 46 44 43 43 43 42 39 38 39 39 37 35 34 35 34 30 24 20 17 15 14 15 15 14 12 12 12 12 13 12 11 10 11 10 11 15 19 17 17 17 14 11 16 22 22 21 22 23 24 22 21 22 25
28 28 30 32 33 34 35 37 39 40 42 42 43 45 46 48 50 49 46 44 44 44 44 44 43 43 43 43 42 42 43 44 44 44 43 41 40 39 37 36 37 37 35 33 31 31 33 33 30 26 20 17 16 17 16 15 13 13 13 14 13 11 10 11 12 13 15 19 17 13 12 13 12 13 19 24 25 25 26 26 27 25 22 24 26
27 28 29 30 32 33 34 36 38 39 41 42 42 43 45 47 49 50 48 46 45 46 47 47 46 45 46 46 46 45 44 44 45 45 44 42 39 38 37 36 36 36 34 33 30 28 28 29 30 27 21 17 16 16 16 15 14 14 14 14 13 10 10 12 14 17 20 17 12 10 9 9 14 18 22 26 27 27 29 31 30 28 25 25 26
27 28 28 29 30 31 33 35 37 38 39 40 40 42 44 46 47 48 48 46 45 44 45 46 46 46 47 48 49 49 47 47 47 47 46 44 41 39 37 36 37 36 34 34 32 29 27 27 25 22 18 16 15 15 15 15 14 14 15 15 13 12 12 15 17 19 16 11 9 8 7 9 15 18 22 28 30 29 31 32 31 28 25 25 24
29 28 28 29 30 31 32 33 35 37 38 37 39 40 42 43 44 44 45 45 44 42 41 42 44 45 46 47 49 50 49 48 48 47 47 45 42 39 37 35 36 35 32 30 28 27 26 24 21 18 15 15 16 16 15 14 14 15 17 16 16 15 13 12 14 13 11 12 12 9 7 10 16 17 22 30 32 32 32 30 29 27 26 29 31
30 28 29 29 30 31 32 32 33 36 37 36 37 39 40 41 41 41 42 43 42 41 39 40 42 43 44 47 48 49 49 48 47 44 45 46 43 40 38 35 33 32 29 26 24 23 23 22 20 19 16 15 16 16 16 15 14 15 17 17 16 13 9 6 5 6 9 12 10 6 6 11 16 20 27 33 31 30 29 26 23 25 30 37 40
30 29 29 29 30 30 31 32 33 35 37 36 35 37 38 39 40 41 40 39 40 39 37 37 39 41 43 44 47 49 49 48 46 41 40 44 44 41 38 36 34 32 30 29 27 23 21 20 20 19 17 16 16 17 17 17 16 15 16 17 14 11 9 6 4 5 8 7 4 4 7 13 18 22 27 32 28 21 20 19 19 27 39 43 41
30 30 28 28 29 30 30 32 33 34 35 35 34 35 36 37 39 40 39 37 37 35 33 33 35 37 40 41 43 47 48 48 46 41 38 41 43 41 39 38 37 35 34 34 32 27 23 22 21 21 20 19 20 20 20 20 19 19 18 16 13 11 10 8 6 3 4 1 2 4 11 13 16 17 17 19 16 10 12 21 27 34 39 39 39
Wind_Direction
213 211 209 208 208 206 204 202 199 198 198 196 197 199 197 192 188 185 183 183 182 182 178 176 177 178 187 203 230 270 311 327 334 336 340 347 358 353 191 164 160 152 133 104 87 88 88 88 86 82 81 78 77 82 76 65 65 68 69 67 61 58 54 53 54 55 55 53 53 51 48 48 48 46 43 40 35 30 28 22 13 6 0 356 349
215 212 210 210 208 206 204 202 200 199 199 199 197 200 200 194 189 187 185 183 183 180 177 177 177 180 190 209 236 276 320 333 338 344 353 14 79 120 134 146 153 153 141 118 97 90 88 88 88 83 79 76 76 83 79 68 69 73 71 66 59 56 53 51 52 52 53 54 55 54 52 51 48 45 42 39 35 32 32 31 29 28 24 15 7
217 215 212 211 209 207 205 202 201 201 200 200 199 197 198 196 191 188 187 183 181 178 177 180 181 186 197 219 248 298 328 335 342 351 15 83 127 136 137 133 138 145 139 122 101 90 86 85 86 82 78 76 77 81 82 74 74 76 70 64 57 53 52 50 51 50 49 53 56 54 51 47 46 44 42 40 37 33 32 31 30 31 31 26 18
218 217 215 213 211 208 206 204 203 202 200 201 200 197 195 194 191 188 187 183 182 178 176 179 187 191 199 223 256 297 321 329 332 356 112 140 142 143 143 137 131 135 135 125 109 99 94 89 84 80 78 79 77 77 79 77 77 78 69 63 55 49 51 53 52 49 48 51 53 52 50 47 46 45 43 42 40 35 33 30 27 27 25 23 19
217 218 217 215 213 210 208 206 205 203 202 201 201 199 195 192 189 187 186 182 182 180 176 180 188 193 200 220 247 279 306 313 274 166 153 153 153 149 145 142 136 133 136 135 128 121 116 106 93 85 82 81 79 76 75 74 75 76 70 63 55 48 51 54 51 49 48 51 51 51 50 49 47 46 45 44 41 36 31 26 23 21 16 14 11
218 217 217 215 214 212 210 208 205 204 203 202 202 201 196 192 189 187 184 183 184 181 179 182 186 189 193 211 232 240 246 199 174 159 158 156 153 151 145 142 140 137 137 139 141 137 134 131 120 107 98 90 83 77 71 69 70 71 70 65 58 53 54 53 50 48 50 51 51 50 50 49 48 48 46 44 41 35 28 23 19 14 8 4 0
218 217 216 215 214 212 211 209 206 205 204 204 203 201 196 192 190 188 185 184 185 181 180 185 186 187 190 199 202 175 163 163 159 153 154 154 150 148 143 140 140 141 141 142 143 140 140 143 141 136 129 115 104 90 75 69 67 68 68 66 64 59 55 52 50 49 50 52 51 49 48 47 47 46 45 41 38 33 26 22 18 13 7 3 359
218 217 216 215 214 213 212 209 207 206 205 204 203 200 195 192 191 191 188 186 186 183 181 185 184 182 184 182 167 156 154 151 150 147 147 149 146 142 138 137 139 142 145 146 146 145 143 146 151 154 152 147 141 126 99 80 69 67 66 64 63 59 54 51 51 50 49 49 48 46 44 43 43 42 41 39 34 29 23 19 16 11 8 5 1
218 217 217 216 214 213 212 209 208 206 205 204 203 200 196 193 192 192 192 190 189 185 180 181 181 178 175 169 155 149 151 149 144 141 142 143 140 137 136 135 138 140 142 145 146 150 153 154 159 165 164 160 159 153 133 105 82 72 67 66 63 59 56 52 51 50 48 48 46 43 41 39 39 37 35 33 29 25 20 16 12 8 4 2 358
218 217 217 217 215 214 212 210 208 206 205 204 202 199 196 195 194 192 193 194 192 188 181 176 172 168 159 151 150 149 151 149 143 140 141 141 137 135 133 132 135 135 135 138 141 148 157 162 165 171 173 169 166 161 150 134 109 85 72 67 65 61 59 56 53 51 49 47 44 40 38 35 33 31 28 25 22 20 17 13 11 9 5 2 358
218 218 217 216 215 214 213 210 207 206 205 204 201 199 196 195 195 194 192 192 193 189 179 169 159 154 148 138 141 147 148 147 145 145 147 144 141 138 136 135 134 132 131 131 135 141 148 153 158 165 168 171 171 166 160 147 125 100 81 72 69 66 62 58 51 47 45 42 40 36 32 30 27 24 22 20 18 15 12 11 9 8 7 4 0
218 218 217 217 215 214 212 209 208 207 205 205 203 201 198 195 195 195 192 189 188 184 177 168 149 129 129 134 138 144 145 146 147 147 149 150 148 146 144 142 136 133 133 134 140 144 145 144 146 151 153 159 163 156 154 144 124 103 84 75 76 69 61 53 44 41 39 36 35 31 27 25 22 20 17 14 13 10 7 6 5 3 3 2 0
218 218 217 217 215 213 211 208 208 208 208 208 206 203 200 197 195 195 195 190 184 179 175 168 146 122 118 124 131 139 142 144 147 147 145 148 153 153 147 143 138 130 129 142 155 153 149 147 142 145 143 144 144 135 134 132 122 108 87 75 71 62 54 48 41 37 33 30 28 24 21 19 16 14 12 9 6 4 2 359 357 355 354 353 352
218 217 217 216 215 212 211 209 209 208 209 209 207 204 201 199 197 193 194 191 186 181 175 169 158 146 139 125 121 137 144 146 148 147 144 143 150 153 146 138 132 122 119 137 160 165 161 158 148 146 144 139 133 123 118 115 115 116 105 89 74 59 50 43 36 32 26 22 21 18 15 12 11 11 8 7 5 4 2 358 356 353 351 349 347
218 217 216 216 215 214 212 211 210 209 208 207 206 205 202 200 199 195 192 189 188 185 181 179 174 158 146 134 140 150 161 174 173 170 171 166 163 164 158 144 127 117 119 124 151 179 174 163 157 150 147 140 128 119 113 109 105 108 108 99 84 71 57 40 30 27 21 17 16 15 11 8 9 10 6 5 4 3 1 358 357 355 352 349 346
218 217 216 216 216 216 215 213 212 211 209 208 206 205 204 202 199 197 193 188 187 187 188 189 178 164 147 100 125 155 211 207 195 201 206 196 191 192 189 172 140 120 128 112 82 157 162 158 158 154 150 140 128 120 113 105 99 93 85 77 71 68 62 47 32 23 17 14 14 12 9 7 7 5 3 1 359 358 355 354 353 351 349 347 345
218 218 217 218 218 217 216 215 213 211 210 210 209 207 206 204 201 199 198 195 191 187 191 195 186 179 173 140 128 200 232 168 174 206 217 206 204 209 211 207 189 135 128 156 41 136 153 155 156 154 150 141 129 122 113 101 86 70 61 53 49 48 48 47 38 23 15 12 11 9 6 4 3 359 357 355 352 351 351 350 348 346 344 342 341
218 218 218 218 218 217 216 215 213 211 210 210 210 209 207 206 204 202 202 201 197 190 191 195 194 195 197 191 194 211 167 146 149 204 217 212 216 220 226 228 225 234 132 182 189 159 156 156 157 155 151 144 134 125 110 92 69 50 40 35 34 34 31 30 29 22 15 10 7 7 4 1 359 356 353 352 351 352 351 349 347 344 341 338 336
217 217 217 217 217 217 216 216 214 212 210 209 209 210 210 208 207 205 204 203 200 197 195 194 194 202 208 208 210 202 171 161 168 165 180 214 221 223 230 231 230 240 203 196 191 167 162 160 160 160 159 150 140 130 108 78 55 39 31 27 26 25 20 18 21 21 18 14 10 4 1 359 357 355 354 354 354 354 352 349 347 344 340 337 334
216 216 216 217 217 216 216 215 215 213 211 211 211 212 212 210 208 207 206 204 204 205 203 197 193 197 201 201 203 193 179 176 184 181 152 180 205 215 224 223 229 232 207 204 190 171 164 164 167 167 167 159 148 138 114 79 48 30 23 20 20 18 16 16 15 14 15 15 10 3 357 355 355 355 355 355 356 354 351 349 346 343 339 336 333
215 216 216 216 216 216 216 215 215 215 213 213 213 213 213 212 210 208 207 207 207 209 212 207 202 200 197 193 186 178 179 184 186 181 168 157 172 195 200 202 221 216 196 186 179 173 168 169 175 175 174 169 161 153 137 103 41 19 13 11 12 11 10 13 11 6 4 2 357 354 352 352 353 354 355 355 354 352 349 346 343 341 338 336 333
214 215 215 215 216 216 216 216 216 217 216 215 214 213 214 214 214 212 210 210 209 210 215 215 211 208 204 197 186 174 171 178 187 184 170 154 175 167 178 182 190 195 196 187 172 174 174 174 179 182 185 179 173 174 173 169 358 0 2 2 1 2 5 9 8 358 351 349 347 346 347 349 350 352 353 352 351 348 345 343 340 338 336 334 331
214 214 215 215 215 215 216 217 217 218 217 216 215 216 216 216 216 215 213 212 211 212 215 216 214 211 209 206 201 196 194 198 201 195 184 171 172 148 178 185 181 191 199 189 177 180 178 179 184 189 193 188 185 189 195 209 269 333 350 353 352 356 2 5 5 356 344 342 343 342 344 346 347 349 350 349 348 346 343 341 339 336 333 331 329
214 214 214 214 214 214 215 215 216 217 218 218 218 218 218 217 216 216 215 214 213 212 214 215 214 212 211 210 211 212 210 214 213 205 201 198 191 159 149 175 186 203 197 190 196 191 183 182 189 194 198 197 197 199 205 224 262 314 336 344 347 351 358 4 8 356 342 339 340 341 343 344 345 347 346 346 345 343 342 340 337 335 333 330 328
214 215 215 214 214 214 215 215 217 218 219 219 219 218 217 217 217 217 216 215 214 213 214 215 215 214 214 212 211 214 214 216 217 210 207 200 192 171 144 164 172 172 194 203 204 190 186 186 192 198 204 205 206 207 213 229 259 304 327 336 342 348 356 4 10 357 341 339 340 341 342 343 345 345 344 345 344 341 341 339 336 335 332 330 327
216 217 218 216 216 217 217 217 217 217 217 217 217 217 217 217 217 217 217 216 215 214 215 216 215 215 215 213 212 214 213 213 214 212 206 199 194 183 159 147 164 148 206 213 190 183 188 191 196 203 210 216 216 214 218 230 261 300 322 331 334 344 355 5 15 6 353 356 355 346 343 344 345 345 343 343 342 340 339 337 335 334 331 329 326
220 220 219 217 217 217 217 217 217 217 216 216 216 216 216 216 217 217 218 217 216 215 215 215 215 214 214 214 214 213 211 211 213 215 212 208 207 199 181 161 157 180 213 215 201 201 193 189 200 209 214 223 222 218 221 230 262 300 317 324 329 342 354 6 18 15 9 13 8 349 342 345 346 345 343 342 341 339 337 334 332 331 329 328 326
223 222 220 218 218 217 216 217 218 217 217 216 216 215 215 215 215 216 217 217 216 215 215 215 215 214 214 214 214 213 211 211 213 214 214 212 214 212 201 190 181 169 178 203 220 219 202 195 203 213 216 223 225 222 225 234 268 305 316 319 328 341 354 7 15 16 15 16 11 354 345 347 347 345 343 340 337 335 333 330 328 326 326 326 325
226 224 223 221 220 218 217 218 217 218 218 217 216 216 215 215 215 215 216 215 215 215 214 214 214 214 214 214 213 212 210 210 212 212 212 212 212 213 211 205 199 184 170 196 206 210 203 201 207 215 215 220 226 227 230 243 276 304 312 316 329 342 355 7 11 14 16 16 14 3 351 348 347 344 341 336 333 331 329 328 327 326 326 326 326
230 227 225 224 222 220 219 218 218 218 218 218 217 217 216 216 216 216 216 215 214 213 214 214 213 212 212 213 212 211 210 210 211 211 211 213 212 211 212 211 208 204 197 192 195 193 193 198 208 216 214 217 224 228 234 251 279 299 305 313 330 342 355 5 8 13 18 18 18 8 350 346 345 340 336 332 330 330 329 328 327 327 327 328 328
233 230 228 226 225 222 220 220 219 219 219 219 218 217 216 216 215 215 215 214 213 212 212 212 212 211 210 211 210 209 210 210 210 211 210 211 212 211 211 210 211 213 211 202 192 192 190 194 203 210 213 217 221 227 240 259 280 292 296 310 331 346 0 5 8 13 16 18 21 8 346 343 343 338 336 335 334 333 331 328 327 328 329 329 329
235 232 231 228 226 224 222 221 220 219 219 218 217 217 216 215 215 214 213 213 212 212 212 211 211 211 210 210 209 208 208 208 209 209 209 209 210 209 209 209 210 213 212 207 186 166 184 192 200 206 209 213 221 233 248 263 275 276 282 312 338 355 3 5 10 14 13 16 20 12 355 348 347 344 343 341 339 336 333 331 330 330 330 329 328
236 233 232 230 228 226 224 222 221 220 219 218 217 217 216 215 214 214 213 211 210 211 211 210 210 211 210 209 208 208 208 208 208 207 207 207 207 206 206 207 208 210 210 207 193 149 169 187 196 204 210 218 229 237 247 260 266 263 283 330 354 2 1 1 6 8 5 8 14 14 5 354 350 349 347 343 340 338 336 333 330 327 326 326 327
239 236 233 231 229 227 225 223 222 220 220 219 218 216 216 215 213 212 211 210 208 208 209 209 209 209 209 208 208 207 207 208 208 207 206 206 205 204 204 204 206 208 208 207 201 176 164 182 196 208 220 230 236 239 249 262 270 277 311 352 2 360 357 355 358 0 3 7 11 9 360 352 353 353 350 346 341 336 332 327 324 324 325 327 327
241 238 235 232 230 228 226 224 221 220 220 219 218 217 216 215 213 212 211 210 208 207 207 208 208 207 206 207 207 206 206 206 206 207 206 205 204 203 203 203 204 206 207 208 207 197 180 183 201 218 228 234 240 247 258 267 278 298 322 347 354 354 353 351 352 357 2 7 9 4 357 357 357 353 349 343 333 328 328 329 329 331 331 330 329
244 240 237 234 231 228 226 224 222 220 219 219 218 218 217 216 214 213 212 211 209 208 209 209 208 207 206 206 206 205 204 203 204 205 205 204 204 204 203 203 203 204 206 207 208 208 200 194 207 224 232 240 252 263 271 274 284 309 328 338 341 344 345 345 348 352 357 4 5 3 3 360 354 349 342 330 325 329 335 339 340 340 336 332 330
246 243 239 234 231 229 227 225 223 221 220 219 218 218 218 217 216 215 214 213 211 210 210 210 209 208 208 207 206 204 203 201 201 203 203 202 203 204 203 203 202 203 204 205 208 212 212 208 211 225 241 255 263 270 276 284 300 320 331 332 332 337 339 338 344 350 351 355 359 358 356 351 344 337 327 320 326 336 342 344 344 341 335 332 332
248 244 240 236 232 231 230 228 226 224 222 220 219 219 219 218 217 216 216 215 213 212 211 211 211 210 209 208 206 205 203 202 201 201 201 201 201 202 203 202 201 200 199 202 205 209 215 219 219 227 243 256 266 273 276 287 312 327 330 328 330 335 335 333 339 347 347 346 349 346 341 335 328 322 319 325 336 343 346 345 343 338 333 332 334
253 246 242 239 236 234 232 230 228 226 224 222 221 220 219 218 217 216 216 216 215 214 213 212 211 211 210 208 207 206 206 204 203 202 199 198 199 201 202 201 198 196 195 197 200 204 209 215 220 228 237 245 258 267 268 278 302 308 313 318 320 324 325 320 321 328 330 322 315 312 312 315 316 317 323 334 344 345 344 342 339 335 334 334 335
259 252 246 242 240 237 235 232 229 227 225 224 223 221 219 218 217 216 217 216 215 215 214 213 212 211 210 208 208 209 209 207 206 205 202 200 198 198 199 199 196 193 192 192 193 197 201 205 212 220 224 227 234 241 239 232 250 264 267 270 283 294 297 289 289 292 290 280 264 259 286 305 314 320 329 338 343 342 339 338 335 333 334 336 335
267 259 252 247 242 239 236 233 231 228 226 226 224 222 220 218 217 218 218 217 216 215 214 213 212 211 210 209 210 211 210 208 207 207 206 205 202 199 197 196 194 193 191 189 188 189 189 191 199 202 205 211 208 208 212 211 217 232 236 237 251 262 264 268 270 266 259 253 243 257 288 306 315 319 326 334 337 337 334 332 331 331 333 333 330
276 266 257 250 245 241 238 235 232 230 228 228 227 225 222 220 218 218 219 219 218 216 215 213 212 212 211 210 210 210 210 208 207 207 206 206 206 206 203 199 196 194 190 186 186 187 183 182 187 189 193 205 204 200 204 206 207 216 226 230 235 242 248 253 258 255 244 240 254 277 296 311 317 314 318 326 329 331 327 325 328 329 329 327 321
286 273 262 254 248 243 240 237 234 232 231 231 229 227 226 223 220 219 218 219 219 218 217 214 212 212 211 210 209 209 208 207 206 206 205 205 205 206 206 205 203 200 196 190 186 185 185 185 186 185 190 199 201 199 200 202 206 213 220 222 226 235 235 235 253 257 239 250 280 290 298 314 321 310 313 322 325 325 322 321 325 326 322 318 314
296 281 267 258 252 247 243 240 237 235 235 234 231 229 227 225 223 221 219 219 218 218 218 217 214 212 210 208 208 208 207 206 204 203 203 204 204 203 204 205 205 206 207 205 199 193 191 189 187 188 191 192 194 197 199 199 203 209 214 219 225 228 226 234 252 253 251 277 295 293 292 312 322 306 309 321 325 323 321 321 323 321 310 306 307
302 286 273 263 257 251 246 242 241 239 238 236 233 231 229 226 224 222 220 219 218 217 217 217 215 213 210 207 206 207 207 205 204 202 200 200 201 202 203 203 203 205 208 211 212 210 204 198 193 191 190 188 191 197 197 196 200 205 211 220 224 220 226 241 249 255 276 294 301 292 287 305 316 307 309 320 324 323 322 321 322 318 308 307 310
304 290 279 269 261 254 249 246 244 243 241 239 236 232 230 227 225 223 221 221 220 219 218 216 214 212 210 208 206 205 204 203 202 200 198 196 195 196 197 199 201 204 205 205 207 211 212 207 201 197 192 188 190 194 196 199 203 208 215 218 217 217 232 248 258 274 291 301 304 296 285 297 314 313 314 321 323 319 319 320 322 323 320 320 321
307 296 285 275 266 259 253 249 247 246 244 241 238 235 231 228 225 223 222 222 222 221 219 217 214 212 211 209 207 205 202 201 201 200 197 195 191 190 192 194 197 200 201 202 202 201 203 204 203 198 190 188 193 195 199 204 207 214 221 223 227 237 251 264 277 288 300 312 313 298 273 293 316 315 312 319 319 314 316 321 325 329 330 328 325
309 300 289 280 272 265 259 253 249 249 248 245 240 237 232 228 224 222 221 222 222 222 221 218 215 213 211 210 208 206 204 202 201 200 198 195 190 188 188 190 194 196 197 199 199 198 199 199 199 196 188 189 195 197 200 203 207 218 226 232 242 251 257 273 287 294 307 322 320 302 269 295 321 319 309 314 317 314 317 323 327 330 331 328 325
307 300 292 284 276 269 262 256 252 251 251 248 242 238 233 226 221 220 220 221 222 222 221 218 215 213 212 211 209 207 204 202 199 196 196 194 190 187 186 186 188 192 195 196 195 197 200 199 200 200 195 193 198 203 207 208 211 222 230 235 245 249 248 263 277 279 303 323 333 323 286 302 324 322 312 314 318 317 318 324 326 325 325 324 324
300 297 293 286 279 272 264 258 254 252 251 250 244 240 234 225 219 219 220 220 221 222 220 217 215 213 212 212 210 207 204 201 197 193 192 193 191 187 185 184 186 191 194 193 191 193 197 200 203 202 200 202 206 208 209 208 210 222 234 241 249 247 240 237 225 260 304 325 5 0 322 316 323 325 321 321 321 317 319 325 324 320 321 324 325
296 293 290 284 278 273 267 261 257 253 252 251 245 240 233 223 219 220 220 219 219 219 216 213 212 211 210 210 209 207 205 201 197 192 191 193 192 188 185 184 187 191 194 192 190 189 189 194 198 198 199 204 205 206 210 214 219 231 243 251 252 242 236 233 218 240 310 269 169 328 327 319 318 327 335 334 325 316 319 321 317 316 319 323 323